Airfield :
LOGIN :

Register | Disclaimer

   EN    FR    IT 

 










Legend :    VFR   Marginal VFR   IFR   Intensive IFR   Very Intensive IFR
Visi :
Ceiling :
>= 8 km
>= 3000ft
5 to 8 km
1000 to 3000 ft
1500m to 5 km
500 to 1000 ft
800 to 1500m
200 to 500 ft
< 800m
< 200 ft
Symbols :   Thunderstorms  Fog  Heavy snow  Heavy precipitations  Wind > 20 kt
SIGMETs :     Misc.  Thunderstorms  Icing  Turbulence  Mountain Waves  Volcanic Ashes






- Airport Elevation : 194 ft
- IATA code : ANE


LFJR - Angers Marcé

CURRENT METAR :
  • 021930Z AUTO 25004KT CAVOK 18/10 Q1018

EXPIRED METARs :
  • 021900Z AUTO 27005KT 240V310 CAVOK 19/10 Q1018
  • 021830Z AUTO 27004KT 230V310 CAVOK 19/11 Q1018
  • 021800Z AUTO 27004KT 250V310 9999 FEW001 BKN094 19/11 Q1018
  • 021730Z AUTO 28004KT 250V360 CAVOK 20/10 Q1018
  • 021700Z AUTO 26009KT CAVOK 20/10 Q1018

Expired Forecast.



MET'MAP, your aeronautical weather chart ! - Copyright ORBIFLY December 2007 - Disclaimer

ORBIFLY MET'MAP TEAM :

Programming & Development : Alexandra Zaïnal
Concept & original design : Baudouin d'Aumeries
Assistance for programming : Marc-Olivier Méhu
Technical & hardware support : Manuel Goepfert

Contact : metmap@orbifly.com




SOURCES & CREDITS :

   NOAA